Showing default

OPS 9341 (IDSCS 19), 3284

Orbit data source: Space-Track

OPS 9341 (IDSCS 19), 3284 is a payload satellite owned by SAMSO (US) in GEO that was launched on Thu, 13 Jun 1968 UTC via a TITAN IIIC launch vehicle from the Air Force Eastern Test Range (AFETR). Payload-class satellites include a variety of spacecraft equipped with specific instruments for various scientific and technological missions. These include communications satellites like Starlink; space stations such as the ISS; scientific satellites like the Hubble; Earth observation satellites from companies like Planet Labs, Umbra, and HawkEye 360; GPS; miniature CubeSats for education and research; and military/defense satellites.

Loading next visibility...
Identifier
3284, 1968-050A
Orbit
GEO
Last TLE update
22 hours ago
Origin
Manufacturer
Philco-Ford
Mission
Non-operational Defense Communications
Bus & Motor
IDCSP, Unknown motor
Mass
45 kg wet, 45 kg dry
Launch date (UTC)
1968-06-13 (57 years ago)
Launch vehicle
TITAN IIIC
Launch site
Air Force Eastern Test Range (AFETR)
Object type
Payload
Rocket body
Debris
Shape & HBR
Poly, 0.9 m
Radar Cross Section
0.926 m², Medium (>0.1 m² and < 1m²)

Expand to show TLE details & history

TLE from 22 hours ago
0 OPS 9341 (IDSCS 19)
1 03284U 68050A   25128.35368692 -.00000088  00000-0  00000-0 0  9993
2 03284   6.3870  55.3094 0012643 139.2968  13.9222  1.07854466 45844
Epoch: 2025-05-08T08:29Z
Definitive object data (Epoch: 2025-05-08T08:29:18.549Z)
Latitude
2.85499°
Longitude
-145.04131°
Altitude
33,736.133 km
Speed
3.154 km/s
True Right ascension
13h 54m 50s
True Declination
2° 51' 07"
Sunlit
Object was in daylight at TLE epoch
Visualization TLE readout
Latitude
2.46467°
Longitude
-141.21004°
Altitude
33,736.985 km
Speed
3.154 km/s
Apparent Right ascension
14h 02m 17s
Apparent Declination
-3° 47' 57"
Sunlit
Object is in daylight
Visualization observer readout
Local Sidereal Time
15:07:34
Azimuth
202.85° SW
Elevation
43.785°
Doppler factor
1
Orbital elements
Apogee altitude
33,838.312 km
Perigee altitude
33,736.749 km
Semi-major axis
40,165.668 km
Eccentricity
0.0012643
Inclination
6.387°
RAAN
55.3094°
Arg. of periapsis
139.2968°
True anomaly
13.95711°
Mean anomaly
13.9222°
Eccentric anomaly
13.93965°
Mean motion
0.26963 °/min
BSTAR
Unknown
Orbital period
1335.19 mins
Loading historical data...
3284 neighbors
Loading maneuver chart data...
Loading SW <> Apogee altitude chart data...
Loading historical data...
Loading historical data...
Loading historical data...
Loading historical data...
Loading historical data...
Loading historical data...
Loading historical data...

OPS 9341 (IDSCS 19) Visibility forecast

Observer location: undefined°, undefined°

Span
Click to sort rows by Start time (UTC) header in descending order
Start Az.
Max El. time (UTC)
Max El. Az.
Max El.
End time (UTC)
End Az.
1440 mins2025-05-09 06:58:38.734Z202.841° SW2025-05-10 00:47:38.734Z169.996° S37.554°2025-05-10 06:58:38.734Z160.661° S
|